This is the latest recevied weather packets stored in our database for station/object IZ1HMT-3. If no packets are shown the sender has not sent any weather packets the latest 10 day(s).
| Time | Temp. | Humidity | Pressure | Rain* | Wind** | Luminosity | Snow |
|---|---|---|---|---|---|---|---|
| 1787756895 | 32.78° C | 50% | 1016.7 hPa | - | - | - | - |
| 1787756292 | 32.22° C | 50% | 1016.9 hPa | - | - | - | - |
| 1787755688 | 32.22° C | 50% | 1017.1 hPa | - | - | - | - |
| 1787755084 | 31.67° C | 52% | 1017.4 hPa | - | - | - | - |
| 1787754481 | 31.67° C | 52% | 1016.2 hPa | - | - | - | - |
| 1787753877 | 31.67° C | 52% | 1017.3 hPa | - | - | - | - |
| 1787753273 | 32.22° C | 51% | 1017.6 hPa | - | - | - | - |
| 1787752670 | 32.22° C | 50% | 1017.5 hPa | - | - | - | - |
| 1787751463 | 33.33° C | 47% | 1017.2 hPa | - | - | - | - |
| 1787749652 | 32.22° C | 49% | 1017.3 hPa | - | - | - | - |
| 1787749049 | 32.78° C | 48% | 1017.4 hPa | - | - | - | - |
| 1787748444 | 32.78° C | 48% | 1017.1 hPa | - | - | - | - |
| 1787747841 | 32.78° C | 48% | 1016.9 hPa | - | - | - | - |
| 1787747236 | 33.33° C | 47% | 1017.1 hPa | - | - | - | - |
| 1787746632 | 33.33° C | 48% | 1017.1 hPa | - | - | - | - |
| 1787746027 | 33.33° C | 47% | 1017.4 hPa | - | - | - | - |
| 1787745423 | 32.78° C | 49% | 1017.5 hPa | - | - | - | - |
| 1787743610 | 32.78° C | 49% | 1017.7 hPa | - | - | - | - |
| 1787743006 | 32.78° C | 48% | 1017.7 hPa | - | - | - | - |
| 1787742401 | 32.78° C | 47% | 1017.8 hPa | - | - | - | - |
| 1787741797 | 32.78° C | 47% | 1017.7 hPa | - | - | - | - |
| 1787741187 | 32.78° C | 46% | 1017.8 hPa | - | - | - | - |
| 1787740583 | 32.78° C | 46% | 1017.7 hPa | - | - | - | - |
| 1787739979 | 33.33° C | 45% | 1017.8 hPa | - | - | - | - |
| 1787739374 | 33.33° C | 45% | 1017.9 hPa | - | - | - | - |
* Rain since midnight (hover to see other rain measurements)
** Current wind speed in m/s (hover to see current wind gust speed)